Regional Weather Roundup
Issued by NWS

Home | Current Version | Previous Version | Text Only | Print | Product List | Glossary Off
Versions: 1 2 3 4 5 6 7 8 9 10 11 12 13 14 15 16 17 18 19 20 21 22 23 24 25 26 27 28

000
ASUS45 KTFX 221010
RWRMT
MONTANA REGIONAL WEATHER ROUNDUP
NATIONAL WEATHER SERVICE GREAT FALLS MT
400 AM MDT FRI JUL 22 2016

NOTE: "FAIR" INDICATES FEW OR NO CLOUDS BELOW 12000 FEET WITH NO
SIGNIFICANT WEATHER AND/OR OBSTRUCTIONS TO VISIBILITY.

MTZ001>007-043-221100-
WEST OF THE DIVIDE

CITY           SKY/WX    TMP DP  RH WIND       PRES   REMARKS
KALISPELL      CLEAR     54  48  80 N8        29.98F
MISSOULA       CLEAR     58  47  66 CALM      30.01S
BUTTE          CLEAR     56  38  50 CALM      30.15S
MULLAN PASS    PTCLDY    65  35  33 VRB3      30.15F
ANACONDA         N/A     57  37  47 SW6       30.10F
DEER LODGE       N/A     55  41  58 W3        30.11S
EUREKA           N/A     54  41  62 CALM      30.03S
HAMILTON         N/A     59  46  63 CALM      30.02S
LIBBY            N/A     55  43  62 CALM      30.01F
PLAINS           N/A     55  45  69 CALM      29.99S
RONAN            N/A     52  47  83 N2        30.03S
$$

MTZ008-052>055-221100-
SOUTHWEST MONTANA

CITY           SKY/WX    TMP DP  RH WIND       PRES   REMARKS
BOZEMAN        PTCLDY    64  43  46 CALM      30.06R
DILLON         PTCLDY    61  35  37 SW8       30.10S
W YELLOWSTONE  CLEAR     52  34  50 CALM      30.27R
ENNIS          PTCLDY    70  32  24 SE10G16   30.15F
THREE FORKS      N/A     58  24  27 CALM      30.03S
TWIN BRIDGES     N/A     58  37  45 CALM      30.07S
$$

MTZ009-010-012-014-046-048-049-054-221100-
EAST SLOPES AND CENTRAL MONTANA

CITY           SKY/WX    TMP DP  RH WIND       PRES   REMARKS
CUT BANK       CLEAR     50  42  74 NW6       30.06F
GREAT FALLS    CLOUDY    55  44  66 SW10      30.02S
MALMSTROM AFB  CLOUDY    60  47  62 SE6       30.01F
HELENA         CLEAR     73  35  25 W7        30.04S
CHOTEAU          N/A     57  39  51 W3        30.07F
CONRAD           N/A     47  44  89 CALM      30.06F
$$

MTZ011-013-016-021-045-047-050-051-221100-
NORTH CENTRAL MONTANA

CITY           SKY/WX    TMP DP  RH WIND       PRES   REMARKS
HAVRE          PTCLDY    64  50  60 E10       30.00S
LEWISTOWN      CLOUDY    68  47  46 SE8       30.06F
N BAR RANCH      N/A     59  48  67 N6        30.12F
CHINOOK          N/A     59  52  77 CALM      30.01S
$$

MTZ017>020-022>027-061-062-221100-
NORTHEAST MONTANA

CITY           SKY/WX    TMP DP  RH WIND       PRES   REMARKS
GLASGOW        CLEAR     66  54  65 NE14      30.03R
JORDAN           N/A     58  51  78 W3        30.01F
SIDNEY         CLEAR     60  54  80 N10       30.02R
WOLF POINT     CLEAR     61  56  83 SE3       30.03S
PLENTYWOOD       N/A     63  55  77 NW3       30.07R
POPLAR           N/A     63  55  77 N9        30.04R
SCOBEY           N/A     53  46  77 CALM      30.06R
$$

MTZ028>42-056>058-221100-
SOUTHCENTRAL AND SOUTHEAST MONTANA

CITY           SKY/WX    TMP DP  RH WIND       PRES   REMARKS
BAKER          CLEAR     63  57  81 S6        30.06S
BILLINGS       PTCLDY    69  44  40 N6        30.01F
LIVINGSTON     CLEAR     70  41  34 E10       30.08F
MILES CITY     MOCLDY    71  54  54 NE8       30.00F
EKALAKA          N/A     64  54  70 SE5       30.04F
FORSYTH          N/A     70  52  52 E6        30.00R
LAUREL           N/A     71  40  32 N2        30.00F
ROUNDUP          N/A     66  48  52 CALM      29.95S
$$

REGIONAL REPORTS...DAKOTAS

CITY           SKY/WX    TMP DP  RH WIND       PRES   REMARKS
WILLISTON      CLEAR     64  56  75 N6        30.04R
MINOT          CLEAR     63  59  87 CALM      30.01S
DICKINSON      CLEAR     63  58  83 NE7       30.04R
CROSBY           N/A     55  55 100 NW3       30.06R
WATFORD CITY     N/A     63  55  77 SE5       30.01S
BISMARCK       PTCLDY    68  65  90 NE3       30.02R
GRAND FORKS    PTCLDY    67  64  90 S6        29.96S
FARGO          PTCLDY    67  64  90 N5        29.97S
BUFFALO SD       N/A     65  58  78 NE10      29.98F
RAPID CITY     CLEAR     67  60  78 W5        30.06R
$$

REGIONAL REPORTS...WYOMING/IDAHO/WASHINGTON

CITY           SKY/WX    TMP DP  RH WIND       PRES   REMARKS
GILLETTE       CLEAR     73  49  42 SW5       30.09F
SHERIDAN       CLEAR     63  46  54 CALM      30.05F
BUFFALO WY     CLEAR     69  39  33 S7        30.14F
CODY           CLEAR     70  34  26 S5        30.12F
YELLOWSTONE LA   N/A     45  36  70 CALM      30.40S
IDAHO FALLS    CLOUDY    63  51  65 NW6       30.09F
SALMON         PTCLDY    55  39  54 CALM      30.03S
BOISE          MOCLDY    71  39  31 SE5       30.00R
SPOKANE        PTCLDY    66  42  41 SW5       29.95R
$$

REGIONAL REPORTS...ALBERTA

CITY           SKY/WX    TMP DP  RH WIND       PRES   REMARKS
EDMONTON       PTCLDY    57  52  82 SW3       30.02S
LETHBRIDGE     MOCLDY    54  48  82 W5        30.02S
MEDICINE HAT   CLEAR     55  50  82 S2        29.99F
WATERTON GATE    N/A     45  41  87 SW3         N/A
CARDSTON         N/A     48  41  76 SW2         N/A
MILK RIVER       N/A     50  46  87 NW7         N/A
$$

REGIONAL REPORTS...SASKATCHEWAN

CITY           SKY/WX    TMP DP  RH WIND       PRES   REMARKS
SWIFT CURRENT  CLEAR     55  50  82 S8        30.05S
REGINA         CLEAR     54  54 100 VRB2      30.04R
SASKATOON      CLEAR     52  52 100 SW3       30.03R
CYPRESS HILLS    N/A     59  43  55 SE6         N/A
VAL MARIE        N/A     50  48  93 NE3         N/A
ROCKGLEN         N/A     59  48  67 S3          N/A
ASSINIBOIA       N/A     55  55 100 N5          N/A
$$




USA.gov is the U.S. government's official web portal to all federal, state and local government web resources and services.